Regional Weather Roundup
Issued by NWS Boston, MA

Home | Current Version | Previous Version | Text Only | Print | Product List | Glossary On
Versions: 1 2 3 4 5 6 7 8 9 10 11 12 13 14 15 16 17 18 19 20 21 22 23 24 25 26 27 28 29 30 31 32 33 34 35 36 37 38 39 40 41 42 43 44 45 46 47 48 49 50
000
ASUS41 KBOX 272310
RWRBOX

REGIONAL WEATHER ROUNDUP
NATIONAL WEATHER SERVICE TAUNTON MA
600 PM EST TUE JAN 27 2015

NOTE:  "FAIR" INDICATES FEW OR NO CLOUDS BELOW 12,000 FEET WITH NO
SIGNIFICANT WEATHER AND/OR OBSTRUCTIONS TO VISIBILITY.  THE FOLLOWING
OBSERVATION LOCATIONS DO NOT REPORT PRESENT WEATHER...PROVINCETOWN...
SMITHFIELD...BLOCK ISLAND...KEENE...AND OXFORD.

MAZALL-280000-
EASTERN MASSACHUSETTS

CITY           SKY/WX    TMP DP  RH WIND       PRES   REMARKS
BOSTON         LGT SNOW  19  14  81 N22G37    29.55R VSB 1   WCI   2
BEVERLY        HAZE      18  12  77 N24G39    29.53R VSB 3/4 WCI   0
LAWRENCE       LGT SNOW  16  12  84 NW16G26   29.58R FOG     WCI   1
BEDFORD        LGT SNOW  15  10  80 NW18G28   29.57R WCI  -2
BLUE HILL        N/A     15  12  88 MISG      29.48R
NORWOOD        LGT SNOW  18  13  80 NW10      29.55R WCI   6
MARSHFIELD     SNOW      21  18  86 NW17G38   29.50R VSB 1/2 WCI   7
PLYMOUTH       CLOUDY    18  13  80 N21G36    29.48R HAZE    WCI   1
TAUNTON        CLOUDY    20  11  68 N15G25    29.51R WCI   6
NEW BEDFORD    LGT SNOW  19  11  70 N9G25     29.49R WCI   8
$$

MAZALL-280000-
CAPE COD AND THE ISLANDS

CITY           SKY/WX    TMP DP  RH WIND       PRES   REMARKS
FALMOUTH       SNOW      18  14  86 NW22G37   29.44R VSB 1/4 WCI   0
HYANNIS        FOG       20  32 100 N28G47    29.34R VSB 1/4 WCI   2
CHATHAM        FOG       21  18  88 NW23G39   29.35R VSB 1/2 WCI   5
PROVINCETOWN     N/A    N/A N/A N/A MISG        N/A
NANTUCKET      SNOW      21  20  96 NW33G53   29.39R VSB 1/2 WCI   2
MARTHAS VNYRD  CLOUDY    19  12  74 MISG      29.46R HAZE
$$

MAZALL-280000-
CENTRAL AND WESTERN MASSACHUSETTS

CITY           SKY/WX    TMP DP  RH WIND       PRES   REMARKS
WORCESTER      LGT SNOW  11   6  81 NW15G32   29.52R WCI  -5
FITCHBURG      CLOUDY    16   6  65 NW12      29.60R WCI   3
ORANGE         LGT SNOW  13   6  74 N21G30    29.63R WCI  -5
SPRINGFIELD    CLOUDY    17   6  61 N16       29.64R WCI   2
WESTFIELD      LGT SNOW  16   6  65 N20       29.66R WCI  -1
NORTH ADAMS    LGT SNOW   8   1  73 SW10G20   29.76R WCI  -6
PITTSFIELD     LGT SNOW   8   0  69 NW10      29.66R WCI  -6
$$

RIZALL-280000-
RHODE ISLAND

CITY           SKY/WX    TMP DP  RH WIND       PRES   REMARKS
PROVIDENCE     LGT SNOW  19  12  74 NW14      29.55R WCI   6
NEWPORT        CLOUDY    19  15  84 NW20G33   29.52R FOG     WCI   3
BLOCK ISLAND   CLOUDY    21  12  68 N17G29    29.54R WCI   7
SMITHFIELD     MOCLDY    16   7  67 NW16      29.51R WCI   0
WESTERLY       MIX PCPN  21  13  71 NW9G17    29.58R WCI  11
$$

CTZALL-280000-
CONNECTICUT

CITY           SKY/WX    TMP DP  RH WIND       PRES   REMARKS
BRADLEY INTL   FLURRIES  18   6  59 N15       29.65R WCI   4
HARTFORD       CLOUDY    19   7  59 NW12G21   29.67R WCI   7
BRIDGEPORT     CLOUDY    21  10  62 NW21G37   29.67R WCI   5
DANBURY        CLOUDY    19   7  59 N16G28    29.69R WCI   4
GROTON         LGT SNOW  21  14  74 N23G31    29.59R WCI   5
NEW HAVEN      FLURRIES  21   9  59 N12G23    29.67R WCI   9
CHESTER        LGT SNOW  19  12  73 NW16      29.61R WCI   5
MERIDEN        LGT SNOW  18   8  65 NW18G30   29.67R WCI   2
WILLIMANTIC    LGT SNOW  19  10  68 N17G26    29.61R WCI   4
OXFORD         CLEAR     16  -8  35 N18G25    29.63R WCI  -1
$$

MEZ002-015-021-024-NHZ003-005-008-011-012-014-VTZ005-008-280000-
NORTHERN NEW ENGLAND

CITY           SKY/WX    TMP DP  RH WIND       PRES   REMARKS
PORTLAND ME    SNOW      15  11  83 N26G44    29.54R VSB 1/4 WCI  -4
BANGOR ME      LGT SNOW  10   5  80 N22G29    29.59R VSB 3/4 WCI -10
CONCORD NH     HAZE      12   7  80 NW16G25   29.63R VSB 1   WCI  -5
MANCHESTER NH  LGT SNOW  13   8  81 NW16G29   29.60R VSB 3/4 WCI  -3
NASHUA NH      LGT SNOW  14   9  81 NW17G29   29.61R WCI  -3
PORTSMOUTH NH  LGT SNOW  17  13  83 N25G35    29.55R VSB 7/8 WCI  -1
JAFFREY NH     LGT SNOW  10   2  69 N9G18     29.58R WCI  -3
KEENE NH       CLOUDY    12   5  73 N17G30    29.66R WCI  -5
BURLINGTON VT  LGT SNOW   8   1  73 N17G29    29.95R WCI -10
MT. WASHINGTON HVY SNOW  -8  -8 100 NE68G78     N/A  VSB 1/16WCI -46
$$

NYZ052-076-280000-
EASTERN NEW YORK

CITY           SKY/WX    TMP DP  RH WIND       PRES   REMARKS
ALBANY         FLURRIES  12   0  58 N10       29.84R WCI  -1
NEW YORK CITY  CLOUDY    26  15  63 N15       29.70R WCI  14
$$

ANZALL-280000-
MARINE OBSERVATIONS

STATION/POSITION TIME  TEMP    WIND        PRES    VSBY  WAVE
                       AIR SEA DIR/SP/G                  HT/PER
                 (UTC) (F)     (DEG/KT/KT) (MB)    (MI)  (FT/S)
BOSTON BUOY      2250   22 41  350/ 37/ 47  996.8R        24/13
BUZZARDS BAY     2200          340/ 32/ 36  998.5R
NANTUCKET SOUND  NOT AVBL
MASS BAY-STELLWA 2204   23 43  340/ 35/ 47   N/A    1 7/8
ISLE OF SHOALS   2300   18     360/ 45/ 55  998.3R
S OF BLOCK IS    2208      42                N/A          10/ 7
$$

......................KEY.........................
  SKY/WX - SKY CONDITION/PRESENT WEATHER
  TMP    - TEMPERATURE IN FAHRENHEIT
  DWPT   - DEWPOINT IN FAHRENHEIT
  RH     - RELATIVE HUMIDITY IN PERCENT
  WIND   - DIRECTION AND SPEED IN MPH
  PRES   - MEAN SEA LEVEL PRESSURE IN INCHES OF HG
  WCI    - WIND CHILL INDEX
  VSB    - VISIBILITY IN MILES
  HX     - HEAT INDEX
  TC     - TEMPERATURE IN CELSIUS
  VRB    - VARIABLE WIND DIRECTION
  N/A    - NOT AVAILABLE



USA.gov is the U.S. government's official web portal to all federal, state and local government web resources and services.